Regional Weather Roundup
Issued by NWS

Home | Current Version | Previous Version | Text Only | Print | Product List | Glossary On
Versions: 1 2 3 4 5 6 7 8 9 10 11 12 13 14 15 16 17 18 19 20 21 22 23 24 25 26 27 28 29 30 31 32 33 34 35 36 37 38 39 40 41 42 43 44 45 46 47 48 49 50
000
ASUS43 KDMX 031907
RWRIA

WEATHER ROUNDUP FOR IOWA
NATIONAL WEATHER SERVICE DES MOINES IA
100 PM CST TUE MAR 03 2015

NOTE: "FAIR" INDICATES FEW OR NO CLOUDS BELOW 12,000 FEET WITH NO
SIGNIFICANT WEATHER AND/OR OBSTRUCTIONS TO VISIBILITY.

* - THESE STATIONS ARE NOT NWS STATIONS...THUS NOT UNDER NWS
QUALITY CONTROL.  THEY ALSO DO NOT REPORT WEATHER SUCH
AS PRECIPITATION OR FOG.

IAZ001>003-012>014-020>022-031>034-043>046-032000-
   NORTHWEST IOWA

CITY           SKY/WX    TMP DP  RH WIND       PRES   REMARKS
CARROLL *      CLOUDY    34  28  80 NW21G26   29.78R WCI  22
CHEROKEE *     PTSUNNY   28  19  69 N28G33    29.82R WCI  13
DENISON *      CLOUDY    32  28  86 NW20      29.79R WCI  20
LE MARS *      PTSUNNY   28  18  64 N23G35    29.87R WCI  14
ORANGE CITY *  FLURRIES  27  18  69 N22G29    29.83F WCI  12
SHELDON *      FLURRIES  25  18  74 NW24G35   29.82R WCI   9
STORM LAKE *   CLOUDY    28  23  80 NW25G32   29.79R WCI  14
$$

IAZ055>058-069>071-079>083-090>094-032000-
   SOUTHWEST IOWA

CITY           SKY/WX    TMP DP  RH WIND       PRES   REMARKS
ATLANTIC *     CLOUDY    34  28  80 NW17G24   29.81R WCI  23
AUDUBON *      SUNNY     34  28  80 NW13G22   29.80R WCI  25
CLARINDA *     CLOUDY    36  30  80 NW15G25   29.84R WCI  26
COUNCIL BLFS * CLOUDY    32  28  86 NW17G32   29.82R WCI  21
CRESTON *      CLOUDY    34  32  93 NW21      29.79R WCI  22
HARLAN  *      CLOUDY    32  32 100 NW16G24   29.83F WCI  21
RED OAK *      CLOUDY    36  28  75 NW18      29.83R WCI  25
SHENANDOAH *   CLOUDY    37  30  75 N14G22    29.85R WCI  29
$$

IAZ047>049-059>061-072>074-084-032000-
   CENTRAL IOWA

CITY           SKY/WX    TMP DP  RH WIND       PRES   REMARKS
ANKENY *       CLOUDY    34  28  80 NW18      29.76R WCI  23
CHARITON *     CLOUDY    36  32  87 NW17G24   29.76R WCI  25
GRINNELL*      CLOUDY    32  30  93 W23G29    29.73R WCI  19
KNOXVILLE *    CLOUDY    36  30  80 NW18G26   29.74R WCI  25
PELLA *        CLOUDY    34  32  93 NW20G26   29.75S WCI  22
PERRY *          N/A     34  28  80 NW15G21   29.77R WCI  24
$$

IAZ004>006-015-016-023>025-035-036-032000-
   NORTH CENTRAL IOWA

CITY           SKY/WX    TMP DP  RH WIND       PRES   REMARKS
ALGONA *       CLOUDY    28 N/A N/A NW25G35   29.76R WCI  14
CLARION *      MIX PCPN  32  30  93 NW21G31   29.74R WCI  20
MASON CITY     CLOUDY    31  25  78 NW25      29.71R WCI  17
FOREST CITY *  CLOUDY    32  23  69 NW22G33   29.72R WCI  19
IOWA FALLS *   CLOUDY    32  27  80 NW20      29.74R WCI  20
$$

IAZ007>011-017>019-026>030-037>042-050>054-066-032000-
   NORTHEAST IOWA

CITY           SKY/WX    TMP DP  RH WIND       PRES   REMARKS
CHARLES CITY * CLOUDY    30  27  86 NW20G29   29.70R WCI  18
DECORAH *      CLOUDY    28  27  93 W12G18    29.65R WCI  18
DUBUQUE          N/A    N/A N/A N/A MISG      29.65R
MONTICELLO *   CLOUDY    32  32 100 W17       29.67S WCI  21
OELWEIN *      CLOUDY    30  28  93 NW18      29.68R WCI  18
$$

IAZ064-065-067-068-078-032000-
   EAST CENTRAL IOWA

CITY           SKY/WX    TMP DP  RH WIND       PRES   REMARKS
DAVENPORT      CLOUDY    33  30  88 W17       29.68F FOG     WCI  22
MT. PLEASANT * CLOUDY    36  36 100 W12       29.73R FOG     WCI  27
MUSCATINE *    CLOUDY    34  32  93 W14       29.71S FOG     WCI  24
$$

IAZ062-063-075>077-085>089-095>099-032000-
   SOUTHEAST IOWA

CITY           SKY/WX    TMP DP  RH WIND       PRES   REMARKS
FAIRFIELD *    CLOUDY    36  34  93 W14       29.71S WCI  27
FORT MADISON * CLOUDY    36  36 100 SW10G16   29.73R FOG     WCI  28
KEOKUK *       CLOUDY    37  36  93 SW12      29.73R FOG     WCI  30
OSKALOOSA *    CLOUDY    34  32  93 NW20      29.74R WCI  22
CENTERVILLE *  LGT RAIN  36  36 100 W14       29.75R WCI  27
WASHINGTON *   CLOUDY    34  34 100 W12       29.71S FOG     WCI  25
$$

ABBREVIATIONS USED IN REMARKS
   TC - TEMPERATURES IN CELSIUS
  WCI - WIND CHILL INDEX
   HX - HEAT INDEX
  VSB - VISIBILITY
$$



USA.gov is the U.S. government's official web portal to all federal, state and local government web resources and services.